Theta_e
286 284 286 285 286 287 286 287 282 285 285 289 291 290 291 292 290 290 292 291 290 288 286 285 283 282 280 279 279 280 279 279 279 279 279 279 279 279 280 280 280 281 281 281
283 285 285 282 285 287 287 288 287 287 286 293 292 290 289 291 291 290 291 292 291 289 288 285 283 281 280 279 279 279 278 277 278 278 278 278 278 279 279 279 279 279 279 279
280 283 283 280 283 285 286 288 288 284 289 293 292 292 293 292 292 293 292 291 291 289 288 286 283 281 278 278 278 277 277 277 277 278 277 278 278 278 278 277 278 278 278 278
280 279 274 283 288 289 287 288 290 290 291 292 293 294 293 292 292 291 292 292 292 292 290 286 282 280 278 278 277 277 277 276 276 277 276 277 277 276 276 276 276 277 277 278
280 278 279 282 284 284 284 285 290 289 291 292 293 291 290 292 291 292 293 293 293 292 286 279 278 277 277 277 277 276 275 275 276 276 276 276 275 275 275 276 276 276 277 277
279 277 274 282 288 288 287 280 289 291 291 290 290 284 289 293 290 290 286 287 284 280 278 277 276 277 276 275 275 274 274 275 275 275 275 275 275 275 275 275 276 276 276 276
281 276 275 283 284 287 278 281 289 287 289 289 286 289 287 282 280 278 277 277 276 276 276 275 276 276 275 274 274 274 274 273 273 273 273 274 273 274 274 274 274 275 275 275
280 277 275 286 283 281 285 285 286 284 287 286 286 284 282 279 277 276 275 274 275 274 273 274 276 275 274 272 272 271 271 271 271 271 273 273 272 273 273 273 272 272 273 273
279 280 285 285 286 287 285 286 285 284 285 286 285 283 280 278 276 275 274 274 273 272 272 273 274 274 271 269 269 269 269 268 269 270 271 272 271 271 271 271 270 270 270 269
281 284 284 283 284 284 285 286 286 285 283 283 283 281 279 277 275 274 273 272 271 271 270 269 271 271 269 268 268 266 267 268 269 270 269 270 271 271 270 269 268 268 267 266
280 283 282 284 284 285 285 283 282 280 281 281 280 279 278 276 274 273 272 271 270 269 268 266 266 266 266 266 267 268 268 268 269 269 269 268 269 268 269 269 269 267 266 266
280 282 283 285 284 283 282 280 280 277 276 277 278 278 276 273 272 271 269 269 268 267 265 264 263 263 263 264 266 267 267 267 267 267 267 267 266 266 268 269 270 270 271 270
284 285 282 283 276 274 276 274 274 275 275 274 274 275 272 270 269 269 268 267 266 265 264 263 262 263 263 263 264 265 265 265 265 266 265 264 264 263 262 264 267 268 268 268
279 278 278 275 280 276 275 272 271 269 268 270 269 268 268 267 266 266 266 265 265 264 264 263 263 261 261 262 262 261 263 263 263 264 263 262 262 262 261 260 258 258 263 264
276 272 273 271 270 268 268 267 265 265 265 264 264 266 266 265 264 264 265 266 266 264 263 263 261 260 260 260 260 260 261 262 262 261 261 261 260 259 258 257 256 254 254 258
262 261 263 265 266 264 264 262 265 264 265 264 263 263 265 266 265 264 264 264 263 262 261 262 261 260 259 259 259 259 259 260 258 256 255 255 257 256 255 254 252 252 251 251
265 267 259 261 264 264 264 262 263 262 263 266 264 264 263 262 262 262 262 264 264 262 262 262 261 259 257 257 257 256 256 255 255 253 252 252 252 251 250 246 248 248 250 252
258 257 257 261 261 262 261 266 266 267 265 266 266 265 263 263 262 261 260 260 259 259 260 259 257 256 255 254 253 253 252 251 248 248 247 247 246 247 246 246 246 247 250 250
253 257 256 259 258 260 263 264 265 264 264 264 264 263 263 263 261 260 257 257 256 255 256 253 260 253 251 249 248 246 247 247 245 245 245 247 245 244 245 246 247 247 248 250
252 252 253 257 256 260 261 256 260 259 259 261 260 259 258 256 256 255 254 255 255 255 250 253 253 250 248 249 257 248 247 247 248 247 244 244 246 247 246 247 247 248 247 248
253 251 252 252 253 251 252 253 255 256 253 256 259 258 257 251 251 251 251 252 252 248 247 251 251 250 249 248 248 245 245 245 245 247 246 247 247 247 247 246 247 249 250 250
251 251 252 251 252 251 249 248 251 251 249 249 250 252 251 248 247 246 247 252 248 251 249 248 249 249 248 253 247 245 244 244 245 244 246 246 246 247 248 249 249 250 250 251
254 254 254 254 253 253 249 249 250 253 252 252 252 252 253 252 251 251 251 251 247 249 249 248 248 252 253 249 247 246 246 246 247 248 249 249 249 248 249 250 250 251 251 251
256 255 254 253 252 251 253 250 249 249 250 250 251 252 253 251 249 252 251 251 253 255 250 249 254 259 255 248 247 247 247 248 249 249 250 250 249 250 250 251 251 251 251 251
257 256 254 253 254 254 252 252 251 250 251 249 249 250 251 252 255 254 252 252 255 252 250 252 258 258 255 250 250 250 250 250 250 250 250 250 250 250 251 251 251 251 252 252
257 257 256 256 255 255 255 254 255 254 253 253 252 253 253 253 253 253 253 253 253 253 249 249 249 250 250 250 249 250 251 251 251 251 251 251 251 251 251 251 252 252 252 252
256 258 256 256 256 257 257 256 256 256 255 255 256 255 255 254 254 254 254 253 252 251 250 248 249 250 249 249 249 250 250 250 251 251 251 251 251 251 252 252 252 252 253 253
Wind_Speed
15 3 8 10 15 17 20 25 12 22 22 23 16 8 10 11 6 4 10 11 13 13 13 13 12 11 10 9 7 6 6 5 5 4 4 4 4 5 5 5 5 5 5 6
14 10 9 4 10 19 23 23 18 23 22 19 10 4 4 7 6 8 11 10 12 13 12 13 14 13 11 10 9 7 6 6 5 4 4 4 4 4 5 5 5 5 5 5
14 7 6 7 22 16 13 21 18 21 27 22 20 14 13 10 10 15 9 11 14 17 18 15 16 16 15 13 10 9 9 7 6 5 5 4 4 5 5 5 5 5 5 5
8 7 11 10 9 20 22 19 18 18 21 22 18 17 9 11 11 9 10 11 12 14 13 12 12 13 13 13 11 10 9 8 6 6 5 5 5 5 4 3 4 4 4 4
8 12 2 8 8 11 14 22 20 21 26 24 20 11 12 10 9 12 13 14 12 11 8 10 14 14 14 12 11 10 10 8 7 6 6 5 6 5 4 3 3 3 3 3
4 10 11 12 16 6 6 7 17 22 20 19 17 7 17 12 7 10 4 3 6 7 9 13 13 14 14 12 12 10 10 9 7 6 6 6 5 5 4 2 4 2 3 4
11 5 6 9 5 7 10 15 18 10 17 17 11 12 5 3 2 3 3 5 5 7 9 10 10 11 11 12 12 11 10 8 6 5 5 6 5 3 4 4 3 2 4 3
2 4 8 8 2 12 10 1 5 4 12 9 7 5 6 5 5 5 7 7 7 9 8 8 9 10 10 9 8 7 7 9 7 5 4 5 5 5 4 4 3 3 3 3
8 7 7 9 9 9 6 7 5 4 6 8 7 7 7 7 7 7 7 6 8 9 9 6 6 10 11 7 8 8 5 1 5 6 5 3 5 5 4 3 3 2 2 2
5 9 11 4 4 1 6 9 8 8 6 8 8 6 6 6 6 6 6 7 6 9 8 6 5 9 11 10 8 6 6 4 2 5 6 4 3 4 4 3 3 2 1 1
4 13 4 7 9 8 9 5 4 3 6 7 6 6 6 7 8 8 8 7 8 9 8 8 8 8 7 7 8 8 7 5 3 2 5 5 4 3 3 3 3 2 2 2
9 4 7 15 6 4 7 7 7 7 5 6 8 8 8 7 8 10 10 9 9 9 11 9 9 8 6 4 5 8 7 5 3 2 2 3 2 2 3 1 2 3 4 2
16 9 9 9 3 3 5 5 3 6 5 7 5 7 6 4 6 9 9 10 11 12 11 10 10 9 6 4 4 4 6 6 3 2 2 2 1 1 0 3 4 3 4 6
4 5 7 5 7 7 4 2 3 4 1 2 4 4 5 6 8 8 9 8 10 11 10 10 10 8 8 6 4 3 4 5 4 3 2 1 1 1 1 2 2 2 4 8
6 3 3 4 4 4 3 4 3 4 3 3 3 6 8 9 9 7 7 9 9 9 8 8 9 8 7 6 6 5 5 4 3 2 1 2 1 1 2 2 2 3 2 4
2 2 1 1 4 4 5 4 7 6 5 4 5 5 6 7 9 8 8 10 11 9 9 9 7 7 7 6 6 4 3 4 3 2 1 1 1 2 2 2 2 3 3 5
4 7 2 5 8 7 9 4 3 4 4 6 7 7 9 10 9 8 7 5 7 8 9 9 8 7 6 6 6 3 3 2 5 2 2 3 3 3 3 3 4 4 5 4
3 2 1 3 5 5 4 5 5 6 5 6 8 9 8 9 9 8 7 6 6 5 5 5 7 7 6 5 4 3 3 3 2 4 3 3 3 4 4 3 4 4 6 5
2 6 5 5 3 5 6 7 7 7 9 10 10 9 8 6 8 8 8 7 6 6 6 5 10 8 6 6 5 3 3 3 3 3 3 4 3 3 4 4 5 5 5 6
2 2 2 3 1 4 6 3 7 7 7 9 9 8 7 6 8 9 8 9 8 5 4 9 7 7 6 6 7 4 4 4 4 4 3 3 4 5 5 6 6 6 5 5
5 3 3 2 2 3 2 3 5 6 3 4 9 9 8 6 5 7 6 5 6 5 5 8 7 4 4 5 5 4 4 4 4 4 4 5 5 5 6 5 6 6 7 7
4 3 3 3 2 1 3 2 4 6 5 5 5 6 7 5 4 1 2 4 2 8 5 4 4 7 5 8 4 4 4 5 5 3 4 5 5 6 6 6 7 7 7 8
5 4 4 5 5 4 2 3 3 6 7 6 7 7 7 5 5 5 3 5 3 5 4 4 6 8 9 4 4 5 5 5 5 6 6 6 7 7 7 8 8 7 8 8
3 4 3 4 5 3 4 3 2 2 3 3 4 6 7 5 1 4 2 3 6 8 5 5 7 11 10 4 5 5 5 6 7 7 7 8 7 7 8 8 9 8 9 10
4 4 4 5 5 4 3 5 4 3 3 3 4 4 4 2 3 3 5 3 5 5 4 6 10 11 5 5 6 6 7 7 7 6 7 7 8 8 8 8 9 9 9 9
5 4 4 5 2 3 3 5 4 4 4 3 2 3 3 3 3 3 4 5 5 5 4 4 3 3 4 5 6 7 7 7 7 7 8 8 8 8 9 10 10 10 10 10
2 3 2 2 2 3 4 5 5 5 6 5 4 5 6 5 5 5 5 5 5 4 4 4 4 5 5 5 6 6 7 7 9 8 8 8 8 9 10 10 10 10 10 10
Wind_Direction
240 130 178 198 196 198 212 227 209 245 241 253 252 249 247 246 252 177 203 200 197 191 194 191 182 172 165 158 153 152 138 130 132 123 113 106 95 89 84 69 61 63 54 44
234 215 203 168 200 207 213 229 236 253 266 261 252 195 256 262 246 219 220 221 215 212 201 193 181 174 162 157 155 145 138 138 136 135 127 117 109 101 91 78 71 70 58 60
238 168 136 218 217 211 216 226 220 234 244 262 265 255 248 241 233 247 238 217 210 207 204 195 187 172 169 155 146 146 146 149 150 148 140 126 117 101 88 82 82 76 69 71
238 126 215 231 193 206 215 229 225 241 255 253 256 261 242 211 224 227 235 235 227 217 212 192 171 161 146 148 149 150 147 147 148 147 144 135 117 103 87 82 88 86 73 74
219 216 341 305 235 182 188 234 227 223 241 255 258 280 281 232 207 225 234 239 229 212 172 144 154 149 140 141 143 146 150 149 151 154 148 138 127 119 110 98 88 85 87 81
161 220 218 228 235 182 98 255 223 217 234 244 257 267 267 283 191 229 277 268 186 135 131 140 147 141 140 146 149 155 150 147 146 148 144 131 126 124 108 120 113 119 108 74
203 205 277 247 239 107 164 230 253 187 219 233 224 229 242 119 77 56 61 60 64 103 127 130 131 133 141 149 156 143 131 127 129 131 141 132 120 120 107 104 80 72 97 77
183 215 240 191 75 188 218 161 211 191 220 224 230 185 186 165 157 143 121 106 105 107 109 114 128 130 134 129 114 109 130 135 137 138 151 133 135 127 110 105 112 105 98 87
182 210 234 200 200 224 176 191 224 190 212 211 225 212 186 198 176 166 150 140 119 124 117 104 118 132 124 119 116 114 103 93 138 139 131 146 136 122 113 110 104 100 75 70
44 256 247 216 249 218 170 210 225 221 193 182 208 211 200 177 167 161 148 136 122 122 119 86 74 108 119 122 118 118 125 147 196 144 132 124 111 113 126 118 118 103 70 36
250 265 36 262 228 224 231 225 210 197 197 201 191 217 191 179 170 162 147 134 136 135 127 111 99 90 86 105 128 134 130 143 182 178 130 132 118 122 121 120 162 185 202 195
232 199 198 251 230 187 212 216 224 182 209 212 197 205 180 179 166 155 148 141 133 131 127 125 114 108 105 113 145 137 139 156 168 179 135 124 131 120 28 345 265 282 301 268
247 257 214 266 219 196 194 207 199 199 207 188 200 172 155 142 150 139 140 144 146 148 139 135 131 132 131 133 141 138 131 145 152 182 165 146 119 112 325 338 337 335 335 334
245 126 260 195 242 178 154 137 86 71 8 177 136 77 103 118 124 136 148 145 139 139 142 143 137 133 130 122 116 113 143 130 149 163 157 143 170 200 242 241 267 284 329 324
229 225 253 151 105 117 99 121 130 176 171 105 60 133 137 142 146 140 131 133 128 125 125 127 128 130 139 139 163 168 174 166 150 146 172 193 198 235 227 255 261 273 326 325
168 90 9 119 218 199 164 198 189 192 172 148 132 138 134 124 121 121 128 139 143 151 141 137 150 163 152 159 170 179 180 147 146 140 152 170 231 218 227 237 261 265 271 267
67 291 312 269 222 213 217 200 186 162 153 160 152 137 127 125 117 123 122 121 121 136 150 154 168 151 150 167 171 167 157 155 161 132 183 216 220 222 228 220 236 244 254 247
137 119 142 184 225 206 215 197 172 159 165 149 136 133 138 148 153 144 133 115 101 104 143 146 142 150 160 164 161 150 141 154 154 193 204 219 229 226 229 230 241 256 274 271
190 175 198 198 216 187 170 166 159 144 146 150 147 154 151 142 144 140 134 142 151 161 211 168 177 156 168 180 160 140 159 175 196 217 211 228 254 247 244 242 249 242 247 267
204 252 224 257 237 161 171 197 151 152 160 147 137 146 155 157 149 150 159 181 185 184 165 172 176 169 178 190 178 174 185 196 209 221 219 231 238 249 245 244 246 255 253 250
214 209 227 261 281 333 28 127 140 162 180 142 159 167 163 137 123 133 141 189 225 197 173 160 172 171 167 173 174 173 184 203 211 220 224 232 243 249 250 248 251 253 261 255
178 186 189 174 172 107 3 91 111 118 117 109 92 109 123 133 130 160 257 196 241 167 154 164 176 178 179 184 172 187 201 210 222 209 234 232 231 243 248 250 251 253 248 249
185 182 170 175 170 167 107 93 128 143 150 161 157 160 166 167 159 154 220 216 178 179 171 179 185 187 191 180 185 199 210 219 232 232 234 234 235 235 243 250 251 252 255 256
175 173 166 140 125 112 166 203 168 173 144 152 169 163 151 147 254 234 286 156 161 182 184 187 205 204 192 183 197 211 223 230 234 235 236 234 235 241 246 250 254 255 254 256
187 164 149 158 176 204 159 153 133 137 156 175 188 188 181 184 168 183 176 182 186 180 194 215 209 222 211 193 206 217 228 231 234 231 236 241 246 247 249 249 250 254 255 255
180 207 189 181 173 161 157 160 186 171 166 193 230 199 202 196 187 154 163 185 197 194 203 201 212 225 215 216 220 231 237 242 237 238 238 243 245 247 250 252 254 254 254 256
142 176 180 197 199 179 170 183 183 193 189 191 212 189 195 188 194 193 198 202 209 210 215 210 212 221 222 227 234 238 240 244 241 245 245 247 249 249 251 253 254 255 257 258